Regional Weather Roundup
Issued by NWS

Home | Current Version | Previous Version | Text Only | Print | Product List | Glossary Off
Versions: 1 2 3 4 5 6 7 8 9 10 11 12 13 14 15 16 17 18 19 20 21 22 23 24 25 26 27 28 29 30 31 32 33 34 35 36 37 38 39 40 41 42 43 44 45 46 47 48 49 50

000
ASUS43 KLMK 121910
RWRKY
KENTUCKY REGIONAL WEATHER ROUNDUP
NATIONAL WEATHER SERVICE LOUISVILLE KY
300 PM EDT SAT JUL 12 2014

NOTE "FAIR" INDICATES FEW OR NO CLOUDS BELOW 12,000 FEET
WITH NO SIGNIFICANT WEATHER AND/OR OBSTRUCTIONS TO VISIBILITY.

KYZ001>023-026-027-061>063-070>075-122000-
WESTERN AND SOUTH CENTRAL KENTUCKY

CITY           SKY/WX    TMP DP  RH WIND       PRES   REMARKS
PADUCAH        CLOUDY    90  72  55 SW8       30.13F HX  97
HENDERSON      CLOUDY    75  72  88 CALM      30.16F
OWENSBORO      LGT RAIN  83  72  69 W9        30.17F
HOPKINSVILLE   NOT AVBL
BOWLING GREEN  CLOUDY    91  62  37 E6        30.16F HX  91
GLASGOW        MOSUNNY   90  60  36 NW6       30.18S
$$

KYZ024-025-028>034-038-045-046-053-122000-
NORTH CENTRAL KENTUCKY

CITY           SKY/WX    TMP DP  RH WIND       PRES   REMARKS
LOUISVILLE/SDF CLOUDY    90  65  43 W7        30.15F HX  92
LOUISVILLE/LOU CLOUDY    88  65  46 SW8       30.17F HX  90
FORT KNOX      NOT AVBL
$$

KYZ035>037-039>044-047>052-055>060-089>105-122000-
NORTHEAST KENTUCKY

CITY           SKY/WX    TMP DP  RH WIND       PRES   REMARKS
LEXINGTON      CLOUDY    88  62  41 NW9       30.19F
COVINGTON      CLOUDY    86  64  47 W10       30.18F
FRANKFORT      CLOUDY    84  64  50 W5        30.18F
$$

KYZ054-064>069-076>088-106>120-122000-
SOUTHEAST KENTUCKY

CITY           SKY/WX    TMP DP  RH WIND       PRES   REMARKS
JACKSON        MOSUNNY   90  56  31 VRB6      30.22F
LONDON         MOSUNNY   89  57  33 CALM      30.22S
SOMERSET       PTSUNNY   90  48  24 NE5       30.21F
MIDDLESBORO    MOSUNNY   88  62  41 CALM      30.21S
MONTICELLO     PTCLDY    91  56  30 CALM      30.21F
$$



USA.gov is the U.S. government's official web portal to all federal, state and local government web resources and services.